Location: Caltech
(34.1382°N, 118.1253°W)
Time: 12:38:52
(UTC-07:00)

SL-16 R/B - Visible Passes

Search period start: 28 May 2016 00:00
Search period end: 07 June 2016 00:00
Orbit: 843 x 846 km, 71.0° (Epoch: 28 May)

Date Brightness Start Highest point End Pass type
(mag) Time Alt. Az. Time Alt. Az. Time Alt. Az.
28 May 4.9 01:37:44 10° NNE 01:39:53 12° NE 01:42:03 10° ENE visible
28 May 2.1 03:19:01 10° NNW 03:24:43 86° WSW 03:27:28 32° SSE visible
29 May 4.9 01:23:43 10° NNE 01:25:37 12° NE 01:27:30 10° ENE visible
29 May 2.1 03:04:46 10° NNW 03:10:29 90° WSW 03:12:08 48° SSE visible
30 May 4.9 01:09:45 10° NE 01:11:21 11° NE 01:12:55 10° ENE visible
30 May 2.1 02:50:32 10° NNW 02:56:15 87° ENE 02:57:05 66° SSE visible
31 May 4.9 00:55:53 10° NE 00:57:04 11° NE 00:58:15 10° ENE visible
31 May 2.1 02:36:18 10° NNW 02:42:00 84° ENE 02:42:15 81° ESE visible
01 Jun 4.9 00:42:17 10° NE 00:42:47 10° NE 00:43:18 10° ENE visible
01 Jun 2.2 02:22:05 10° NNW 02:27:32 79° NNE 02:27:32 79° NNE visible
02 Jun 2.4 02:07:50 10° NNW 02:12:57 70° NNE 02:12:57 70° NNE visible
03 Jun 2.5 01:53:37 10° NNW 01:58:28 63° N 01:58:28 63° N visible
04 Jun 2.7 01:39:23 10° NNW 01:44:02 58° N 01:44:02 58° N visible
05 Jun 2.8 01:25:10 10° NNW 01:29:41 54° NNE 01:29:41 54° NNE visible
06 Jun 2.9 01:10:56 10° NNW 01:15:24 52° NNE 01:15:24 52° NNE visible
